ポンス-ブルックス彗星

12P/Pons-Brooks (2024)

English version
Home page
Updated on December 7, 2023

---------------------------------------------------------------------

・ プロフィール

検出日 2020年6月10日
検出光度 22.8等
検出者 M. M. Knight, C. E. Holt, Q.-Z. Ye, L. M. Feaga, M. S. P. Kelley, L. Shumar, J. Sanborn, A. Hayslip (Lowell Observatory)

・ 写真集

・ 軌道要素

Epoch 2023 Sept. 13.0 TT = JDT 2460200.5                                        
T 2024 Apr. 21.13670 TT                                 Rudenko                 
q   0.7808789            (2000.0)            P               Q                  
n   0.01383722     Peri.  198.98794     +0.14511978     -0.32930721             
a  17.1831783      Node   255.85541     +0.98565925     +0.13019278             
e   0.9545556      Incl.   74.19104     +0.08611674     -0.93520404             
P  71.2                                                                         
>From 2550 observations 2020 June 10-2023 Aug. 26, mean residual 0".6.           

・ 星図

・ 光度変化

        H = 12.5  G = 0.15               [    ,-840]  (              〜2022年 1月 2日)
        m1 = 5.0 + 5 logΔ + 13.5 log r  [-840,-276]  (2022年 1月 2日〜2023年 7月20日)
        m1 = 9.0 + 5 logΔ +  0.0 log r  [-276,-158]  (2023年 7月20日〜2023年11月15日)
        m1 = 4.3 + 5 logΔ +  6.0 log r  [-158,   0]  (2023年11月15日〜2024年 4月21日)
        m1 = 5.0 + 5 logΔ + 13.5 log r  [   0,    ]  (2024年 4月21日〜              )

---------------------------------------------------------------------

軌道要素はM.P.E.C. 2023-Q150に掲載されたものです。
星図はステラナビゲータ Ver.10 (アストロアーツ) で作成したものです。
光度グラフはComet for Windowsで作成したものです。

---------------------------------------------------------------------

Copyright(C) Seiichi Yoshida (comet@aerith.net). All rights reserved.